Regional Weather Roundup
Issued by NWS Huntsville, AL

Home | Current Version | Previous Version | Text Only | Print | Product List | Glossary On
Versions: 1 2 3 4 5 6 7 8 9 10 11 12 13 14 15 16 17 18 19 20 21 22 23 24 25 26 27
000
ASUS44 KHUN 210010
RWRHUN

WEATHER ROUNDUP FOR THE TENNESSEE VALLEY
NATIONAL WEATHER SERVICE HUNTSVILLE AL
700 PM CDT FRI OCT 20 2017

ALZ001>004-210100-
NORTHWEST ALABAMA

CITY           SKY/WX    TMP DP  RH WIND       PRES   REMARKS
COURTLAND HCN    N/A     61 N/A N/A NE3         N/A
RUSSELLVILLE     N/A     61 N/A N/A MISG        N/A
SHOALS AIRPORT CLOUDY    61  48  62 CALM      30.18R
6HR MIN TEMP:  61; 6HR MAX TEMP:  78;

SHOALS TVA RES   N/A     63 N/A N/A MISG        N/A
$$

ALZ005>007-016-210100-
NORTH CENTRAL ALABAMA

CITY           SKY/WX    TMP DP  RH WIND       PRES   REMARKS
CULLMAN AG STN   N/A     57 N/A N/A CALM        N/A
DECATUR AP     CLOUDY    57  50  77 CALM      30.18R
6HR MIN TEMP:  57; 6HR MAX TEMP:  78;

HUNTSVILLE AP  CLOUDY    65  49  56 CALM      30.18R
6HR MIN TEMP:  65; 6HR MAX TEMP:  78;

MERIDIANVILLE  CLOUDY    57  50  77 CALM      30.18S
REDSTONE ARSN  CLOUDY    60  51  72 CALM      30.17R
VINEMONT AP    FAIR      55  50  83 CALM      30.21S
$$

ALZ008>010-210100-
NORTHEAST ALABAMA

CITY           SKY/WX    TMP DP  RH WIND       PRES   REMARKS
ALBERTVILLE    CLOUDY    61  50  67 E3        30.19S
FORT PAYNE     CLEAR     55  50  82 CALM      30.20R
SCOTTSBORO AP  CLEAR     61  57  88 CALM      30.19R
SCOTTSBORO HCN   N/A     59 N/A N/A MISG        N/A
VALLEY HEAD      N/A     55 N/A N/A MISG        N/A
$$

TNZ076-096-097-210100-
SOUTHEASTERN MIDDLE TENNESSEE

CITY           SKY/WX    TMP DP  RH WIND       PRES   REMARKS
TULLAHOMA      CLEAR     57  52  82 CALM      30.21R
WINCHESTER     CLEAR     55  48  76 CALM        N/A
$$

...SURROUNDING SITES...

CITY           SKY/WX    TMP DP  RH WIND       PRES   REMARKS
ATLANTA        MOCLDY    69  44  40 CALM      30.20R
ANNISTON       CLEAR     61  55  81 CALM      30.18R
BIRMINGHAM     MOCLDY    64  51  62 CALM      30.19S
CHATTANOOGA    PTCLDY    62  55  77 CALM      30.20R
CORINTH        FAIR      63  55  77 CALM      30.14R
DALTON         CLEAR     59  55  88 CALM      30.21R
GADSDEN        CLEAR     58  54  86 CALM      30.19R
GOLDEN TRNGL   CLOUDY    72  59  63 E7        30.13S
HALEYVILLE     FAIR      58  56  93 CALM      30.19S
JACKSON TN     CLOUDY    60  56  86 SW3       30.14S
MEMPHIS        CLOUDY    71  56  58 SE5       30.11S
NASHVILLE      CLOUDY    66  46  48 CALM      30.18R
OXFORD MS      FAIR      63  57  82 CALM      30.14R
ROME           CLEAR     60  56  86 CALM      30.19R
SAVANNAH       PTCLDY    61  54  77 CALM      30.14S
SELMER         CLEAR     61  54  77 SE5       30.14S
TUPELO         CLOUDY    70  53  54 E3        30.13S
TUSCALOOSA     CLOUDY    64  58  80 E3        30.15R
$$

...GULF COAST WEATHER...

CITY           SKY/WX    TMP DP  RH WIND       PRES   REMARKS
GULFPORT       CLOUDY    75  68  78 E9        30.08R
PASCAGOULA     MOCLDY    70  65  84 CALM      30.09R
MOBILE         MOCLDY    74  63  68 NE5       30.10S
GULF SHORES    PTCLDY    71  68  89 E13       30.09S
PENSACOLA      MOCLDY    76  66  71 SE6       30.08S
DESTIN         PTCLDY    79  59  50 CALM      30.09S
PANAMA CITY    CLEAR     77  65  66 NE3       30.09R
APPALACHICOLA  PTCLDY    76  67  73 NE5       30.09R
$$





USA.gov is the U.S. government's official web portal to all federal, state and local government web resources and services.